{"data":{"norad_id":33376,"epoch":"2026-09-20T03:59:47.042016Z","epoch_age_seconds":43120,"freshness":"FRESH","line1":"1 33376U 08045A   26263.16651669 -.00000143  00000+0  00000+0 0  9995","line2":"2 33376   0.0251 235.0253 0002484 306.9365 140.0581  1.00271909 65854","mean_motion":1.00271909,"eccentricity":0.0002484,"inclination_deg":0.0251,"raan_deg":235.0253,"arg_perigee_deg":306.9365,"mean_anomaly_deg":140.0581,"bstar":0,"rev_number":6585,"period_min":1436.0951280981,"perigee_km":35776.086488741,"apogee_km":35797.03391031,"semimajor_km":42164.697199525,"source":"CELESTRAK","updated_at":"2026-09-20T09:00:35.517469Z"}}